Regional Weather Roundup
Issued by NWS

Home | Current Version | Previous Version | Text Only | Print | Product List | Glossary Off
Versions: 1 2 3 4 5 6 7 8 9 10 11 12 13 14 15 16 17 18 19 20 21 22 23 24 25 26 27 28 29 30 31 32 33 34 35 36 37 38 39 40 41 42 43 44 45 46 47 48 49 50

000
ASUS43 KOAX 011210
RWRNE

WEATHER ROUNDUP FOR NEBRASKA
NATIONAL WEATHER SERVICE OMAHA NE
700 AM CDT WED JUL 01 2015

NOTES: SATELLITE DATA IS BEING USED TO AUGMENT CLOUD COVER ABOVE
       12000 FEET.
       "FAIR" INDICATES FEW OR NO CLOUDS BELOW 12,000 FEET WITH NO
       SIGNIFICANT WEATHER AND/OR OBSTRUCTIONS TO VISIBILITY.

  * THESE STATIONS DO NOT REPORT WEATHER SUCH AS RAIN...SNOW OR FOG.

NEZ001>004-019>022-054>056-011300-
NEBRASKA PANHANDLE

CITY           SKY/WX    TMP DP  RH WIND       PRES   REMARKS
SCOTTSBLUFF    CLEAR     63  58  83 CALM      30.03R
6HR MIN TEMP:  61; 6HR MAX TEMP:  73;

ALLIANCE       CLEAR     60  58  92 W7        29.99R
6HR MIN TEMP:  58; 6HR MAX TEMP:  71;

CHADRON        CLEAR     64  61  90 W7        29.97R
6HR MIN TEMP:  62; 6HR MAX TEMP:  69;

KIMBALL          N/A    N/A N/A N/A MISG        N/A
SIDNEY         CLEAR     61  57  87 NW10      30.05R
6HR MIN TEMP:  60; 6HR MAX TEMP:  72; 6HR PCP: TRACE;

$$

NEZ057>060-069>072-079>082-011300-
SOUTHWEST NEBRASKA

CITY           SKY/WX    TMP DP  RH WIND       PRES   REMARKS
NORTH PLATTE   CLEAR     62  60  93 NW12      29.90R FOG
6HR MIN TEMP:  61; 6HR MAX TEMP:  73;

IMPERIAL       PTCLDY    70  64  81 N15       29.92R
6HR MIN TEMP:  70; 6HR MAX TEMP:  80; 6HR PCP: TRACE;

LEXINGTON      CLEAR     63  61  95 N8        29.84S FOG
MCCOOK         CLOUDY    70  65  84 MISG      29.84R HAZE
6HR MIN TEMP:  70; 6HR MAX TEMP:  80;

OGALLALA       CLEAR     70  67  89 N14       29.93S
$$

NEZ005>010-023>029-035>040-094-011300-
NORTH CENTRAL NEBRASKA

CITY           SKY/WX    TMP DP  RH WIND       PRES   REMARKS
VALENTINE      CLEAR     59  58  96 CALM      29.90R
6HR MIN TEMP:  58; 6HR MAX TEMP:  66;

AINSWORTH      CLEAR     60  59  98 CALM      29.92R FOG
BROKEN BOW     PTCLDY    63  61  93 N10       29.89R FOG
6HR MIN TEMP:  62; 6HR MAX TEMP:  68;

O`NEILL          N/A     63  62  99 SE3       29.88R FOG
ORD            CLOUDY    64  62  93 N6        29.87R FOG
6HR MIN TEMP:  59; 6HR MAX TEMP:  69;

THEDFORD       MOCLDY    62  61  97 CALM      29.91F FOG
$$

NEZ041-046>049-061>064-073>077-083>087-011300-
SOUTH CENTRAL NEBRASKA

CITY           SKY/WX    TMP DP  RH WIND       PRES   REMARKS
GRAND ISLAND   CLEAR     67  63  87 E6        29.82R
6HR MIN TEMP:  66; 6HR MAX TEMP:  71;

AURORA         PTCLDY    67  65  94 E6        29.81R
HASTINGS       CLEAR     67  63  87 E3        29.81R FOG
6HR MIN TEMP:  66; 6HR MAX TEMP:  72;

HEBRON         CLEAR     68  62  80 SE7       29.78S
HOLDREGE       CLEAR     64  62  95 N6        29.83R FOG
KEARNEY *      CLEAR     64  61  88 N7        29.83R
YORK           PTCLDY    66  64  94 SE7       29.81S
$$

NEZ011>018-030>034-042>045-011300-
NORTHEAST NEBRASKA

CITY           SKY/WX    TMP DP  RH WIND       PRES   REMARKS
NORFOLK        PTCLDY    65  64  97 N5        29.87R FOG
6HR MIN TEMP:  64; 6HR MAX TEMP:  67;

ALBION         CLOUDY    64  62  91 NE7       29.88R FOG
BLAIR          MOSUNNY   66  63  91 E6        29.85R
COLUMBUS *     PTCLDY    64  59  82 NE6       29.85R
FREMONT        CLEAR     67  65  93 NE5       29.85R FOG
TEKAMAH        MOSUNNY   67  65  93 E10       29.85R FOG
6HR MIN TEMP:  66; 6HR MAX TEMP:  69; 6HR PCP:  0.01;

WAYNE          CLOUDY    65  65  97 N6        29.90R FOG
$$

NEZ050>053-065>068-078-088>093-011300-
SOUTHEAST NEBRASKA

CITY           SKY/WX    TMP DP  RH WIND       PRES   REMARKS
LINCOLN        PTCLDY    68  65  90 E7        29.82R FOG
6HR MIN TEMP:  67; 6HR MAX TEMP:  70; 6HR PCP:  0.22;

OMAHA EPPLEY   PTSUNNY   68  65  90 E7        29.84R
6HR MIN TEMP:  67; 6HR MAX TEMP:  70; 6HR PCP:  0.02;

BEATRICE       MOCLDY    69  65  89 SE15      29.80R
FALLS CITY     CLOUDY    69  67  93 S13       29.78F
6HR MIN TEMP:  68; 6HR MAX TEMP:  74; 6HR PCP:  0.32;

NEBRASKA CITY  MOCLDY    67  67  97 E6        29.83R
PLATTSMOUTH    MOSUNNY   67  64  91 CALM      29.83R
$$

NEZ044-045-051>053-067-011300-
OMAHA AREA

CITY           SKY/WX    TMP DP  RH WIND       PRES   REMARKS
OMAHA EPPLEY   PTSUNNY   68  65  90 E7        29.84R
6HR MIN TEMP:  67; 6HR MAX TEMP:  70; 6HR PCP:  0.02;

BLAIR          MOSUNNY   66  63  91 E6        29.85R
FREMONT        CLEAR     67  65  93 NE5       29.85R FOG
MILLARD        PTCLDY    68  65  93 CALM      29.83R
OFFUTT AFB     MOSUNNY   68  66  92 E5        29.82R
PLATTSMOUTH    MOSUNNY   67  64  91 CALM      29.83R
WAHOO          FAIR      68  65  93 E5        29.84R
$$


USA.gov is the U.S. government's official web portal to all federal, state and local government web resources and services.